ROMMA est une association bénévole à but non lucratif. Votre soutien est indispensable : ADHERER à ROMMA ou FAIRE un DON

Eygliers - (05, Hautes-Alpes)

Guillestrois (965 m)   Longitude: 6° 38' 04" E   Latitude: 44° 40' 37" N Station partenaire n°53
 

Détail journalier du     <<     >>

Température Precipitation Humidité Vent Dir Rafale Dir. rafale Ensol.
Heure (°C) (mm) (%) (km/h) (km/h) (min)
01:00 4.70885E11NNE0
02:00 4.40891NE8NNO0
03:00 3.80901NNE6NE0
04:00 4.60874NNE13NNE0
05:00 3.80893ESE11NNE0
06:00 3.60882E13ESE0
07:00 2.70882ENE8ENE0
08:00 3.60872ESE10NE0
09:00 4.60862ENE8E20
10:00 7.70741NE8N60
11:00 10.70632SO6OSO60
12:00 12.70565SSO11SO60
13:00 14.10505SE13SO60
14:00 15.30485E16NNE60
15:00 15.20526SO21SO60
16:00 15.00504SO15SO60
17:00 10.30691NO6NO25
18:00 8.3076000
19:00 6.80811N6NNO0
20:00 6.00821SE8ESE0
21:00 5.20841NE10NNE0
22:00 5.20831ENE5E0
23:00 5.10823ESE11NE0
minuit 3.90862NE10NE0

Graphique du 15-11-2018

 

Serveur OMMA